This is the latest recevied weather packets stored in our database for station/object KN6ETB-1. If no packets are shown the sender has not sent any weather packets the latest 10 day(s).
| Time | Temp. | Humidity | Pressure | Rain* | Wind** | Luminosity | Snow |
|---|---|---|---|---|---|---|---|
| 1778114584 | 25° C | 59% | 1014.6 hPa | 0 mm | - | 239 W/m² | - |
| 1778114281 | 25.56° C | 58% | 1014.6 hPa | 0 mm | - | 260 W/m² | - |
| 1778113976 | 26.11° C | 56% | 1014.5 hPa | 0 mm | - | 278 W/m² | - |
| 1778113672 | 25.56° C | 57% | 1014.6 hPa | 0 mm | - | 287 W/m² | - |
| 1778113368 | 25.56° C | 57% | 1014.8 hPa | 0 mm | - | 286 W/m² | - |
| 1778113065 | 25.56° C | 56% | 1014.7 hPa | 0 mm | - | 311 W/m² | - |
| 1778112763 | 25.56° C | 58% | 1014.7 hPa | 0 mm | - | 324 W/m² | - |
| 1778112459 | 25.56° C | 56% | 1014.7 hPa | 0 mm | - | 341 W/m² | - |
| 1778112155 | 25.56° C | 55% | 1014.8 hPa | 0 mm | - | 370 W/m² | - |
| 1778111851 | 26.11° C | 54% | 1015 hPa | 0 mm | - | 383 W/m² | - |
| 1778111547 | 25.56° C | 55% | 1014.9 hPa | 0 mm | - | 391 W/m² | - |
| 1778111244 | 26.11° C | 53% | 1015.1 hPa | 0 mm | - | 411 W/m² | - |
| 1778110941 | 26.11° C | 53% | 1015 hPa | 0 mm | - | 420 W/m² | - |
| 1778110639 | 26.11° C | 53% | 1014.8 hPa | 0 mm | - | 413 W/m² | - |
| 1778110335 | 25.56° C | 53% | 1014.9 hPa | 0 mm | - | 412 W/m² | - |
| 1778110032 | 26.11° C | 53% | 1014.9 hPa | 0 mm | - | 420 W/m² | - |
| 1778109726 | 25.56° C | 54% | 1014.9 hPa | 0 mm | - | 448 W/m² | - |
| 1778109424 | 25.56° C | 53% | 1015.1 hPa | 0 mm | - | 482 W/m² | - |
| 1778109123 | 25° C | 54% | 1015.1 hPa | 0 mm | - | 485 W/m² | - |
| 1778108819 | 25° C | 56% | 1015.4 hPa | 0 mm | - | 498 W/m² | - |
| 1778108516 | 23.89° C | 54% | 1015.4 hPa | 0 mm | - | 516 W/m² | - |
| 1778108212 | 24.44° C | 54% | 1015.6 hPa | 0 mm | - | 547 W/m² | - |
| 1778107909 | 24.44° C | 56% | 1015.7 hPa | 0 mm | - | 531 W/m² | - |
| 1778107606 | 24.44° C | 57% | 1015.5 hPa | 0 mm | - | 338 W/m² | - |
| 1778107302 | 23.89° C | 57% | 1015.7 hPa | 0 mm | - | 558 W/m² | - |
* Rain latest hour (hover to see other rain measurements)
** Current wind speed in m/s (hover to see current wind gust speed)